TimeEDT,TemperatureF,Dew PointF,Humidity,Sea Level PressureIn,VisibilityMPH,Wind Direction,Wind SpeedMPH,Gust SpeedMPH,PrecipitationIn,Events,Conditions,WindDirDegrees,DateUTC
12:54 AM,64.9,63.0,93,30.27,7.0,Calm,Calm,-,N/A,,Clear,0,2007-06-27 04:54:00
1:54 AM,64.9,63.0,93,30.25,5.0,Calm,Calm,-,N/A,,Clear,0,2007-06-27 05:54:00
2:54 AM,64.0,62.1,93,30.26,4.0,Calm,Calm,-,N/A,,Clear,0,2007-06-27 06:54:00
3:13 AM,64.4,62.6,94,30.32,4.0,Calm,Calm,-,N/A,,Partly Cloudy,0,2007-06-27 07:13:00
3:54 AM,64.0,61.0,90,30.25,6.0,Calm,Calm,-,N/A,,Clear,0,2007-06-27 07:54:00
4:01 AM,62.6,60.8,94,30.31,1.2,NW,5.8,-,N/A,,Partly Cloudy,310,2007-06-27 08:01:00
4:08 AM,62.6,60.8,94,30.31,0.2,NW,3.5,-,N/A,Fog,Fog,310,2007-06-27 08:08:00
4:23 AM,62.6,60.8,94,30.30,1.0,Calm,Calm,-,N/A,,Mist,0,2007-06-27 08:23:00
4:25 AM,62.6,60.8,94,30.30,2.5,Calm,Calm,-,N/A,,Mostly Cloudy,0,2007-06-27 08:25:00
4:32 AM,62.6,60.8,94,30.30,3.0,Calm,Calm,-,N/A,,Mostly Cloudy,0,2007-06-27 08:32:00
4:34 AM,62.6,60.8,94,30.30,1.5,Calm,Calm,-,N/A,,Mostly Cloudy,0,2007-06-27 08:34:00
4:36 AM,62.6,60.8,94,30.30,0.8,Calm,Calm,-,N/A,,Mist,0,2007-06-27 08:36:00
4:54 AM,62.1,61.0,96,30.23,0.5,Calm,Calm,-,N/A,Fog,Fog,0,2007-06-27 08:54:00
5:15 AM,62.6,60.8,94,30.29,2.0,WNW,3.5,-,N/A,,Mostly Cloudy,300,2007-06-27 09:15:00
5:24 AM,62.6,60.8,94,30.29,1.2,Calm,Calm,-,N/A,,Overcast,0,2007-06-27 09:24:00
5:33 AM,62.6,60.8,94,30.29,0.5,Calm,Calm,-,N/A,Fog,Fog,0,2007-06-27 09:33:00
5:42 AM,62.6,60.8,94,30.29,0.2,Calm,Calm,-,N/A,Fog,Fog,0,2007-06-27 09:42:00
5:54 AM,62.1,61.0,96,30.23,1.2,Calm,Calm,-,N/A,,Overcast,0,2007-06-27 09:54:00
5:56 AM,62.6,60.8,94,30.29,2.5,Calm,Calm,-,N/A,,Overcast,0,2007-06-27 09:56:00
6:03 AM,62.6,60.8,94,30.29,4.0,NW,3.5,-,N/A,,Overcast,310,2007-06-27 10:03:00
6:17 AM,62.6,60.8,94,30.30,0.5,NW,4.6,-,N/A,Fog,Fog,320,2007-06-27 10:17:00
6:52 AM,62.6,60.8,94,30.30,2.0,Calm,Calm,-,N/A,,Partly Cloudy,0,2007-06-27 10:52:00
6:54 AM,62.1,60.1,93,30.24,2.0,Calm,Calm,-,N/A,,Partly Cloudy,0,2007-06-27 10:54:00
7:01 AM,62.6,60.8,94,30.31,5.0,NNW,5.8,-,N/A,,Partly Cloudy,330,2007-06-27 11:01:00
7:54 AM,63.0,62.1,97,30.26,4.0,NW,3.5,-,N/A,Fog,Patches of Fog,320,2007-06-27 11:54:00
8:54 AM,68.0,63.0,84,30.25,6.0,NNW,3.5,-,N/A,Fog,Patches of Fog,330,2007-06-27 12:54:00
9:54 AM,73.0,64.9,76,30.25,5.0,NNW,3.5,-,N/A,,Haze,330,2007-06-27 13:54:00
10:54 AM,78.1,64.9,64,30.23,7.0,Variable,3.5,-,N/A,,Clear,0,2007-06-27 14:54:00
11:54 AM,80.1,64.0,58,30.23,8.0,SSE,3.5,-,N/A,,Clear,150,2007-06-27 15:54:00
12:54 PM,82.9,62.1,49,30.22,8.0,Calm,Calm,-,N/A,,Clear,0,2007-06-27 16:54:00
1:54 PM,82.9,64.9,54,30.20,8.0,South,9.2,-,N/A,,Partly Cloudy,170,2007-06-27 17:54:00
2:54 PM,82.9,63.0,51,30.18,9.0,South,10.4,-,N/A,,Partly Cloudy,190,2007-06-27 18:54:00
3:54 PM,81.0,64.9,58,30.17,8.0,Calm,Calm,-,0.00,,Scattered Clouds,0,2007-06-27 19:54:00
4:54 PM,84.0,63.0,49,30.14,10.0,SSW,9.2,-,N/A,,Partly Cloudy,210,2007-06-27 20:54:00
5:54 PM,81.0,63.0,54,30.14,9.0,NNW,6.9,-,N/A,,Scattered Clouds,330,2007-06-27 21:54:00
6:54 PM,82.9,64.0,53,30.13,9.0,Calm,Calm,-,N/A,,Partly Cloudy,0,2007-06-27 22:54:00
7:54 PM,81.0,64.9,58,30.13,8.0,SSW,4.6,-,N/A,,Clear,210,2007-06-27 23:54:00
8:54 PM,77.0,66.9,71,30.14,7.0,SSE,4.6,-,N/A,,Clear,150,2007-06-28 00:54:00
9:54 PM,75.0,64.9,71,30.16,9.0,South,3.5,-,N/A,,Partly Cloudy,190,2007-06-28 01:54:00
10:54 PM,73.0,66.0,79,30.17,7.0,Calm,Calm,-,N/A,,Mostly Cloudy,0,2007-06-28 02:54:00
11:54 PM,71.1,66.9,87,30.17,5.0,Calm,Calm,-,N/A,,Clear,0,2007-06-28 03:54:00